Location: Unspecified
(0.0000°N, 0.0000°E)
Time: 00:28:46
(UTC+00:00)

Courier 1B - All Passes

Search period start: 12 December 2017 00:00
Search period end: 22 December 2017 00:00
Orbit: 962 x 1209 km, 28.3° (Epoch: 10 December)

Date Brightness Start Highest point End Pass type
(mag) Time Alt. Az. Time Alt. Az. Time Alt. Az.
12 Dec - 01:56:45 10° WNW 02:00:47 17° NNW 02:04:51 10° NNE night (unlit)
12 Dec - 07:48:08 10° N 07:49:30 11° NNE 07:50:52 10° NNE daylight
12 Dec - 09:38:01 10° NW 09:44:37 34° NNE 09:51:28 10° E daylight
12 Dec - 11:31:24 10° WNW 11:39:04 77° SSW 11:46:58 10° SE daylight
12 Dec - 13:27:35 10° W 13:33:47 25° SSW 13:40:01 10° SSE daylight
12 Dec - 21:12:47 10° SSW 21:18:29 27° SSE 21:23:56 10° E visible
12 Dec - 23:06:00 10° WSW 23:12:45 87° NNW 23:19:15 10° ENE night (unlit)
13 Dec - 01:01:49 10° WNW 01:06:53 24° NNW 01:11:55 10° NNE night (unlit)
13 Dec - 08:44:49 10° NNW 08:50:35 25° NNE 08:56:35 10° E daylight
13 Dec - 10:37:33 10° NW 10:45:04 80° NNE 10:52:56 10° ESE daylight
13 Dec - 12:32:49 10° W 12:39:39 33° SSW 12:46:36 10° SE daylight
13 Dec - 14:32:34 10° SW 14:35:05 12° SSW 14:37:35 10° S daylight
13 Dec - 20:19:29 10° SSW 20:24:30 20° SSE 20:29:18 10° ESE visible
13 Dec - 22:12:09 10° SW 22:19:00 67° SSE 22:25:30 10° ENE visible
14 Dec - 00:07:13 10° W 00:13:03 33° NNW 00:18:47 10° NNE night (unlit)
14 Dec - 07:51:53 10° NNW 07:56:31 18° NNE 08:01:18 10° ENE daylight
14 Dec - 09:43:54 10° NW 09:51:07 59° NNE 09:58:44 10° ESE daylight
14 Dec - 11:38:22 10° W 11:45:34 45° SSW 11:53:00 10° SE daylight
14 Dec - 13:36:25 10° SW 13:40:43 15° SSW 13:45:02 10° SSE daylight
14 Dec - 19:26:20 10° SSW 19:30:22 15° SSE 19:34:16 10° SE visible
14 Dec - 21:18:26 10° SW 21:25:11 48° SSE 21:31:34 10° ENE visible
14 Dec - 23:12:50 10° WSW 23:19:17 47° NNW 23:25:29 10° NE night (unlit)
15 Dec - 01:10:54 10° NW 01:13:45 13° NNW 01:16:37 10° N night (unlit)
15 Dec - 06:59:28 10° N 07:02:24 13° NNE 07:05:24 10° NE daylight
15 Dec - 08:50:27 10° NW 08:57:11 43° NNE 09:04:18 10° E daylight
15 Dec - 10:44:12 10° WNW 10:51:32 60° SSW 10:59:14 10° SE daylight
15 Dec - 12:41:01 10° WSW 12:46:26 20° SSW 12:51:56 10° SSE daylight
15 Dec - 18:33:34 10° S 18:36:07 12° SSE 18:38:38 10° SE visible
15 Dec - 20:24:49 10° SW 20:31:18 35° SSE 20:37:25 10° E visible
15 Dec - 22:18:38 10° WSW 22:25:31 67° NNW 22:32:03 10° NE visible
16 Dec - 00:15:24 10° WNW 00:19:47 18° NNW 00:24:06 10° NNE night (unlit)
16 Dec - 07:57:12 10° NNW 08:03:15 31° NNE 08:09:38 10° E daylight
16 Dec - 09:50:16 10° WNW 09:57:34 81° SSW 10:05:20 10° ESE daylight
16 Dec - 11:46:05 10° W 11:52:15 26° SSW 11:58:35 10° SSE daylight
16 Dec - 19:31:18 10° SSW 19:37:19 27° SSE 19:43:02 10° E visible
16 Dec - 21:24:36 10° WSW 21:31:45 88° SE 21:38:27 10° ENE visible
16 Dec - 23:20:25 10° W 23:25:53 26° NNW 23:31:12 10° NNE night (unlit)
17 Dec - 07:04:09 10° NNW 07:09:17 22° NNE 07:14:39 10° ENE daylight
17 Dec - 08:56:33 10° NW 09:03:40 75° NNE 09:11:15 10° ESE daylight
17 Dec - 10:51:30 10° W 10:58:07 35° SSW 11:05:04 10° SE daylight
17 Dec - 12:50:38 10° SW 12:53:31 12° SSW 12:56:26 10° S daylight
17 Dec - 18:37:55 10° SSW 18:43:13 20° SSE 18:48:19 10° ESE visible
17 Dec - 20:30:41 10° SW 20:37:55 64° SSE 20:44:40 10° ENE visible
17 Dec - 22:25:45 10° W 22:32:03 36° NNW 22:38:03 10° NE visible
18 Dec - 00:26:27 10° NNW 00:26:46 10° NNW 00:27:06 10° NNW night (unlit)
18 Dec - 06:11:25 10° N 06:15:17 16° NNE 06:19:15 10° ENE daylight
18 Dec - 08:03:02 10° NW 08:09:47 54° NNE 08:16:59 10° ESE daylight
18 Dec - 09:57:13 10° W 10:04:06 46° SSW 10:11:24 10° SE daylight
18 Dec - 11:54:50 10° WSW 11:59:11 16° SSW 12:03:36 10° SSE daylight
18 Dec - 17:44:42 10° SSW 17:49:01 16° SSE 17:53:13 10° ESE daylight
18 Dec - 19:36:54 10° SW 19:44:01 47° SSE 19:50:41 10° E visible
18 Dec - 21:31:19 10° WSW 21:38:14 51° NNW 21:44:45 10° NE visible
18 Dec - 23:29:11 10° WNW 23:32:42 15° NNW 23:36:09 10° N night (unlit)
19 Dec - 05:19:36 10° N 05:21:13 11° NNE 05:22:51 10° NE visible
19 Dec - 07:09:41 10° NW 07:15:56 38° NNE 07:22:32 10° E daylight
19 Dec - 09:03:10 10° WNW 09:10:09 63° SSW 09:17:36 10° SE daylight
19 Dec - 10:59:39 10° WSW 11:04:56 21° SSW 11:10:24 10° SSE daylight
19 Dec - 16:51:51 10° S 16:54:42 12° SSE 16:57:30 10° SE daylight
19 Dec - 18:43:15 10° SW 18:50:02 35° SSE 18:56:28 10° E visible
19 Dec - 20:37:05 10° WSW 20:44:25 72° NNW 20:51:17 10° NE visible
19 Dec - 22:33:45 10° WNW 22:38:43 21° NNW 22:43:32 10° NNE night (unlit)
20 Dec - 06:16:32 10° NNW 06:22:03 27° NNE 06:27:51 10° E daylight
20 Dec - 08:09:21 10° WNW 08:16:16 86° SSW 08:23:40 10° ESE daylight
20 Dec - 10:04:53 10° W 10:10:47 27° SSW 10:16:59 10° SSE daylight
20 Dec - 17:49:42 10° SSW 17:55:58 26° SSE 18:01:58 10° E daylight
20 Dec - 19:43:00 10° WSW 19:50:33 83° SSE 19:57:37 10° ENE visible
20 Dec - 21:38:46 10° W 21:44:49 29° NNW 21:50:33 10° NNE visible
21 Dec - 05:23:36 10° NNW 05:28:09 19° NNE 05:32:51 10° ENE visible
21 Dec - 07:15:44 10° NW 07:22:26 70° NNE 07:29:35 10° ESE daylight
21 Dec - 09:10:26 10° W 09:16:45 35° SSW 09:23:27 10° SE daylight
21 Dec - 11:09:15 10° SW 11:12:01 12° SSW 11:14:51 10° S daylight
21 Dec - 16:56:19 10° SSW 17:01:48 20° SSE 17:07:08 10° ESE daylight
21 Dec - 18:49:04 10° SW 18:56:39 61° SSE 19:03:45 10° ENE visible
21 Dec - 20:44:04 10° W 20:50:55 40° NNW 20:57:21 10° NE visible
21 Dec - 22:43:21 10° NW 22:45:38 12° NNW 22:47:55 10° N night (unlit)
